INGA4: Red River, Index, AR

                                SHEF ID:       INGA4     Red River at Index, AR
STATION TYPE: Stream Gauge
Regulating: Stage = 19.80, Flow = 104273

PRECIP STAGE RIV-FLOW WTR-TEMP BAT-LOAD
in ft cfs F volt
Ccp-Rev Ccp-Rev Ccp-Rev Ccp-Rev Ccp-Rev
(America/Chicago)
03/25 00:00 0.00 0.49 2035 67.21 12.70
03/25 01:00 0.00 0.48 2010 67.44 12.68
03/25 02:00 0.00 0.48 2010 67.60 12.67
03/25 03:00 0.00 0.48 2010 67.60 12.65
03/25 04:00 0.00 0.48 2010 67.46 12.63
03/25 05:00 0.00 0.47 1986 67.28 12.61
03/25 06:00 0.00 0.47 1986 67.14 12.59
03/25 07:00 0.00 0.46 1961 66.97 12.57
03/25 08:00 0.00 0.46 1961 66.87 12.55
03/25 09:00 0.00 0.46 1961 66.87 12.99
03/25 10:00 0.00 0.45 1937 66.92 13.72
03/25 11:00 0.00 0.45 1937 67.05 13.72
03/25 12:00 0.00 0.44 1913 67.19 13.64
03/25 13:00 0.00 0.43 1889 67.53 13.55
03/25 14:00 0.00 0.43 1889 68.05 13.49
03/25 15:00 0.00 0.43 1889 68.09 13.29
03/25 16:00 0.00 0.43 1889 68.00 13.26
03/25 17:00 0.00 0.42 1865 68.32 13.28
03/25 18:00 0.00 0.42 1865 68.49 13.19
03/25 19:00 0.00 0.43 1889 68.41 13.15
03/25 20:00 0.00 0.43 1889 68.54 12.99
03/25 21:00 0.00 0.43 1889 68.83 12.76
03/25 22:00 0.00 0.42 1865 69.24 12.72
03/25 23:00 0.00 0.42 1865 69.58 12.70
Data processed at Thu 26Mar2026 04:11 GMT

NOTICE: If you are parsing this page

Please convert to using our Data API. Starting early 2026 we will be migrating to: https://water.usace.army.mil with modern pages rendered in JavaScript. When this migration completes you will no longer be able to scrape this page! CWMSDataAPI (CDA)

Timeseries IDs (TSIDs)

TSIDs used from left to right in the data table
INDX.Precip-Inc.Total.1Hour.1Hour.Ccp-Rev
INDX.Stage.Inst.1Hour.0.Ccp-Rev
INDX.Flow.Inst.1Hour.0.Ccp-Rev
INDX.Temp-Water.Inst.1Hour.0.Ccp-Rev
INDX.Volt-Battery Load.Inst.1Hour.0.Ccp-Rev

                            

All information presented herein is the property of the government of the United States of America and may be revised or deleted at any time without prior notice. Dissemination of this information without the expressed written consent of the Public Affairs Office, Tulsa District U.S. Army Corps of Engineers is strictly prohibited. These data are gathered electronically and, as presented, have NOT undergone any form of quality control. These data are NOT guaranteed to be valid or correct.